GW5434 Weather Reports


time (UTC)temp
C
wind
direction
speed
KPH
gust
KPH
rain 1hr
cm
rain 24hr
cm
rain mn
cm
humidity
%
barometer
mb
20260905093030 23 184 0.0 0.0 0.00 0.89 0.00 95 1014.4
20260905091534 23 184 0.0 0.0 0.00 0.89 0.00 96 1014.2
20260905090019 23 184 0.0 0.0 0.00 0.89 0.00 95 1014.3
20260905084527 23 227 0.0 0.0 0.00 0.89 0.00 95 1014.2
20260905083028 23 227 0.0 0.0 0.00 0.89 0.00 96 1014.1
20260905081534 23 227 0.0 0.0 0.00 0.89 0.00 95 1014.0
20260905080031 23 227 0.0 1.6 0.00 0.89 0.00 95 1013.9
20260905074521 23 185 0.0 1.6 0.00 0.89 0.00 95 1013.8
20260905073034 23 185 0.0 0.0 0.00 0.89 0.00 95 1013.9
20260905071541 23 216 0.0 1.6 0.00 0.89 0.00 95 1014.0
20260905070033 23 139 0.0 1.6 0.00 0.89 0.00 95 1014.0
20260905064536 23 106 0.0 0.0 0.00 0.89 0.00 95 1014.0
20260905063023 23 106 0.0 0.0 0.00 0.89 0.00 95 1014.0
20260905061531 23 106 0.0 0.0 0.00 0.89 0.00 95 1014.0
20260905060036 23 106 0.0 0.0 0.00 0.89 0.00 94 1013.9
20260905054542 23 106 0.0 0.0 0.00 0.89 0.00 94 1014.0
20260905053033 23 107 0.0 0.0 0.00 0.89 0.00 94 1013.8
20260905051527 23 106 0.0 0.0 0.00 0.89 0.00 94 1013.9
20260905050031 23 106 0.0 1.6 0.00 0.89 0.00 94 1014.0
20260905044530 24 106 0.0 0.0 0.00 0.89 0.89 94 1014.1
20260905043031 24 106 0.0 0.0 0.00 0.89 0.89 94 1014.2
20260905041533 24 73 0.0 0.0 0.00 0.89 0.89 94 1014.4
20260905040029 24 122 0.0 0.0 0.00 0.89 0.89 94 1014.5
20260905034509 25 122 0.0 0.0 0.00 0.89 0.89 94 1014.7
20260905033013 25 122 0.0 0.0 0.00 0.89 0.89 94 1014.9
20260905031520 25 221 0.0 3.2 0.00 0.89 0.89 94 1014.7
20260905030024 25 215 0.0 0.0 0.00 0.89 0.89 94 1015.1
20260905024530 25 110 0.0 0.0 0.00 0.89 0.89 94 1015.2
20260905023018 25 110 0.0 0.0 0.00 0.89 0.89 94 1014.9
20260905021516 25 110 0.0 0.0 0.00 0.89 0.89 93 1014.9
20260905020024 25 110 0.0 0.0 0.00 0.89 0.89 93 1014.6
20260905014526 25 110 0.0 0.0 0.00 0.89 0.89 93 1014.6
20260905013031 25 110 0.0 0.0 0.00 0.89 0.89 93 1014.6
20260905011510 25 109 0.0 0.0 0.00 0.89 0.89 93 1014.5
20260905010018 25 109 0.0 0.0 0.00 0.89 0.89 93 1014.4
20260905004532 26 109 0.0 0.0 0.00 0.89 0.89 92 1014.3
20260905003004 26 109 0.0 0.0 0.00 0.89 0.89 92 1014.4
20260905001508 26 109 0.0 0.0 0.00 0.89 0.89 91 1014.5
20260905000014 26 109 0.0 0.0 0.00 0.89 0.89 91 1014.7
20260904234520 26 150 0.0 0.0 0.00 0.89 0.89 90 1014.9
20260904233025 26 212 0.0 0.0 0.00 0.89 0.89 90 1014.9
20260904231509 26 243 0.0 0.0 0.00 0.89 0.89 90 1014.8
20260904230012 26 241 0.0 1.6 0.00 0.89 0.89 90 1014.8
20260904224512 26 266 0.0 0.0 0.03 0.89 0.89 89 1014.5
20260904223029 26 338 0.0 1.6 0.03 0.89 0.89 89 1014.3
20260904221529 26 53 0.0 1.6 0.03 0.89 0.89 89 1014.2
20260904220008 26 124 0.0 3.2 0.03 0.89 0.89 89 1014.1
20260904214512 27 134 0.0 3.2 0.00 0.86 0.86 88 1013.9
20260904213026 27 136 1.6 3.2 0.00 0.86 0.86 87 1013.7
20260904211526 27 95 0.0 3.2 0.00 0.86 0.86 84 1013.9
20260904210036 28 115 1.6 9.7 0.00 0.86 0.86 83 1013.8
20260904204519 28 120 3.2 12.9 0.00 0.86 0.86 81 1013.9
20260904203014 30 216 1.6 8.0 0.00 0.86 0.86 78 1013.8
20260904201518 30 287 3.2 8.0 0.00 0.86 0.86 76 1013.6
20260904200027 30 283 1.6 8.0 0.00 0.86 0.86 77 1013.8
20260904194529 29 203 0.0 8.0 0.00 0.86 0.86 79 1013.9
20260904193033 29 345 1.6 4.8 0.00 0.86 0.86 78 1013.9
20260904191514 27 311 3.2 6.4 0.00 0.86 0.86 82 1014.6
20260904190029 27 307 4.8 9.7 0.00 0.86 0.86 85 1015.0
20260904184529 27 250 3.2 11.3 0.00 0.86 0.86 84 1015.4
20260904183029 26 217 3.2 11.3 0.08 0.86 0.86 86 1015.8
20260904181530 26 257 0.0 8.0 0.15 0.86 0.86 90 1015.9
20260904180017 26 208 3.2 8.0 0.15 0.86 0.86 91 1016.3
20260904174529 26 243 0.0 6.4 0.15 0.86 0.86 91 1016.4
20260904173028 26 217 1.6 4.8 0.08 0.79 0.79 90 1016.4
20260904171537 26 288 0.0 4.8 0.00 0.71 0.71 89 1016.3
20260904170035 26 275 1.6 6.4 0.46 0.71 0.71 90 1016.4
20260904164518 25 224 0.0 3.2 0.66 0.71 0.71 90 1016.5
20260904163030 25 219 1.6 4.8 0.71 0.71 0.71 91 1016.6
20260904161531 25 219 1.6 8.0 0.71 0.71 0.71 90 1016.9
20260904160013 25 137 1.6 14.5 0.25 0.25 0.25 87 1017.0
20260904154517 27 152 3.2 4.8 0.05 0.05 0.05 83 1017.0
20260904153028 28 178 0.0 0.0 0.00 0.00 0.00 80 1016.7
20260904151504 27 224 0.0 1.6 0.00 0.00 0.00 80 1016.4
20260904150019 27 37 0.0 1.6 0.00 0.00 0.00 80 1016.3
20260904144511 27 4 1.6 3.2 0.00 0.00 0.00 80 1016.3
20260904143017 27 328 0.0 3.2 0.00 0.00 0.00 81 1016.1
20260904141523 26 297 1.6 8.0 0.00 0.00 0.00 82 1016.1
20260904140005 26 330 1.6 4.8 0.00 0.00 0.00 83 1016.1
20260904134524 26 334 0.0 4.8 0.00 0.00 0.00 84 1016.1
20260904133016 25 302 1.6 4.8 0.00 0.00 0.00 87 1015.9
20260904131523 25 307 0.0 3.2 0.00 0.00 0.00 89 1015.9
20260904130033 24 40 0.0 0.0 0.00 0.00 0.00 90 1016.0
20260904124504 24 113 0.0 0.0 0.00 0.00 0.00 90 1016.0
20260904123012 24 152 0.0 0.0 0.00 0.00 0.00 91 1015.9
20260904121516 23 19 0.0 0.0 0.00 0.00 0.00 92 1015.7
20260904120025 23 19 0.0 0.0 0.00 0.00 0.00 92 1015.6
20260904114535 23 349 0.0 0.0 0.00 0.00 0.00 93 1015.4
20260904113010 23 22 0.0 0.0 0.00 0.00 0.00 93 1015.4
20260904111524 23 22 0.0 0.0 0.00 0.00 0.00 93 1015.3
20260904110022 23 108 0.0 0.0 0.00 0.00 0.00 92 1015.2
20260904104523 23 108 0.0 0.0 0.00 0.00 0.00 92 1015.1
20260904103031 23 108 0.0 0.0 0.00 0.00 0.00 91 1015.1
20260904101511 23 108 0.0 0.0 0.00 0.00 0.00 91 1015.0
20260904100017 23 106 0.0 0.0 0.00 0.00 0.00 91 1014.9
20260904094534 23 128 0.0 0.0 0.00 0.00 0.00 91 1014.9